星链-37077(STARLINK-37077)

导读

STARLINK-37077(NORAD编号68169)是美国太空探索技术公司(SpaceX)星链计划的低轨卫星,于2024年12月8日发射,运行在近地轨道,近地点约355公里、远地点约357公里,轨道倾角43度,属于Starlink V1.0平台,旨在为全球提供高速卫星互联网服务。 2025年12月,该卫星出现异常,轨道高度骤降4000米,推测因内部故障发生爆炸,产生数十块碎片后与地面失联。目前卫星仍处于翻滚状态,预计会在几周内再入大气层烧毁,SpaceX正联合相关机构监测碎片风险。

Basic Information
目录编号:
68169
目录名称:
STARLINK-37077
国际标识:
2026-050C
轨道中心:
EARTH
卫星名称:
星链-37077
卫星全名:
星链-37077(STARLINK-37077)
卫星状态:
在轨 (已飞行174 天)
发射日期:
2026-03-14 UTC
国别 :
美国 (US)
星等 :
--
Orbit Information
数据来源 国际轨道数据 AOE轨道数据
星历时间 2026-09-04T05:14:24+0800
10小时前
查看轨道信息
2026-09-04T00:00:00+0800
15小时前
查看轨道信息
半长轴 6840.824km 6840.771km
偏心率 0.0001305 0.0001092
轨道倾角 53.158° 53.158°
近地点辐角 92.806° 85.302°
升交点赤经 155.653° 156.675°
平近点角 267.309° 148.178°
近地点 461.794km 461.886km
远地点 463.58km 463.382km
周期 93.847分钟 93.846分钟
每日圈数 15.344057 15.344234
Detailed Information
固有亮度:
5
最大亮度:
2.5
卫星平台:
Starlink V1.0
覆盖范围:
全球
运营商:
太空探索技术公司
运营商所在国:
美国
制造商(研发单位):
太空探索技术公司
制造商所在国:
美国
使用方式:
暂无
Satellite Introduction
Starlink 计划是 SpaceX 推出的全球卫星互联网项目,通过发射低轨道卫星,为全球尤其是偏远地区提供高速、低延迟的互联网服务。自 2019 年起,Starlink 已部署数千颗卫星,旨在缩小全球数字鸿沟,推动互联网普及。该项目还为军事、航空等行业提供通信支持,带来广泛经济效益。
2D Orbit Map
3D Orbit Map
Orbit Altitude Analysis Chart
Orbit Inclination Analysis Chart
Orbit Comprehensive Analysis Chart
View Comprehensive Chart
Conjunction Data List
Event ID Objects TCA Miss Dist (km) Collision Risk Probability Collision Risk Index (CRI) Action
CDM_260903-134305-084806-816921
2026-09-03T
13:43:04+0000
0.407 km
远距离
2.067698E-4 高风险 0.81
CDM_260903-204505-084806-816921
2026-09-03T
20:45:07+0000
1.086 km
极远距离
1.182386E-5 中风险 0.56
CDM_260906-060204-177206-816921
2026-09-06T
06:02:21+0000
1.282 km
极远距离
1.102218E-5 中风险 0.56
CDM_260905-005504-299206-816921
2026-09-05T
00:55:10+0000
2.856 km
极远距离
1.339342E-6 低风险 0.38
CDM_260905-081405-187406-816921
2026-09-05T
08:14:03+0000
2.838 km
极远距离
1.20486E-6 低风险 0.37
CDM_260905-055305-187406-816921
2026-09-05T
05:53:24+0000
2.898 km
极远距离
1.171558E-6 低风险 0.36
CDM_260903-221805-084806-816921
2026-09-03T
22:18:54+0000
2.948 km
极远距离
8.836827E-7 极低风险 0.34